Weather in Yakovenkovo

Russia / Republic of Crimea     45°04′01″N   36°19′10″E
temp.,
°C
wind,
m/s
gust,
m/s
humid.,
%
clouds,
%
prec.,
mm/h
press.,
hPa
HPBL,
m
3 march, wed
wed300:00+6w787396 0.0 1024878
03:00+5wsw476770 0.0 1022684
06:00+6wnw101384100 0.2 1021940
09:00+4nw8118199 0.3 1023981
12:00+5nnw8106785 0.1 10241254
15:00+6nnw796490 0.1 10251153
18:00+6nnw68590 0.0 10261122
21:00+5nw57620 0.0 1028764
4 march, thu
thu400:00+4n22700 0.0 1028171
03:00+4w22680 0.0 1028220
06:00+4wsw23670 0.0 1027337
09:00+7sw56600 0.0 10271144
12:00+7ssw88679 0.0 10251157
15:00+7sw910705 0.0 10241113
18:00+7sw911741 0.0 1021948
21:00+7sw911740 0.0 1021810
5 march, fri
fri500:00+6ssw1012760 0.0 1020841
03:00+6ssw1012791 0.0 1019793
06:00+7ssw9117813 0.0 1018692
09:00+7ssw1011786 0.0 1018730
12:00+8ssw1012780 0.0 1017740
15:00+9ssw1012770 0.0 1016672
18:00+9ssw10137634 0.0 1015577
21:00+9ssw11157344 0.0 1015515
6 march, sat
sat600:00+9ssw10167319 0.0 1015495
03:00+9sw8137742 0.0 1015411
06:00+8wsw5690100 0.0 1015171
09:00+8nnw4481100 0.0 1016202
12:00+7nnw6781100 0.0 1017595
15:00+6nnw8984100 0.0 1017603
18:00+3n7988100 0.6 1018741
21:00+4n7962100 0.8 10211230
7 march, sun
sun700:00+4n7955100 0.0 10231299
03:00+3n795773 0.0 10251008
06:00+2nnw57610 0.0 1026789
09:00+2nnw55570 0.0 10271190
12:00+3wnw35340 0.0 10261727
15:00+4w55370 0.0 10251593
18:00+4sw884818 0.0 10231228
21:00+4wsw886045 0.0 10231182